Вернуться в каталог

FENGYUN 1C DEB

АктивенPO
NORAD 31348·DEBRIS·🇨🇳 China

Запущен May 10, 1999 с Taiyuan Satellite Launch Center

Loading…

Ближайшие Пролёты (ближайшие 24 часа)

TLE

СвежийSource: Space-Track

Эпоха: Sep 14, 2026, 10:14 UTC

1 31348U 99025BRC 26257.42691516  .00002205  00000-0  77502-3 0  9993
2 31348  99.1483 229.2713 0033346 344.8120 169.3525 14.35740127  1952

Отслеживайте FENGYUN 1C DEB в реальном времени с AllMySat

Download on the App Store